Weather WX

World > North America > United States > Ohio

Fairview Park, Ohio Regional Weather

Lat: 41.44N, Lon: 81.85W
Wx Zone: OHZ011
Warning FLW WEATHER ALERT - (More Info. Click Here) Warning
Feedback

Fairview Park, OH Regional Weather

Expires:201907181400;;251729
ASUS41 KCLE 181312
RWRCLE
OHIO REGIONAL WEATHER ROUNDUP
NATIONAL WEATHER SERVICE WILMINGTON, OH
900 AM EDT THU JUL 18 2019

NOTE: "FAIR" INDICATES FEW OR NO CLOUDS BELOW 12,000 FEET WITH NO
SIGNIFICANT WEATHER AND/OR OBSTRUCTIONS TO VISIBILITY.


OHZ009>014-019>023-028>033-038-089-181400-
   NORTHEAST OHIO
  
CITY           SKY/WX    TMP DP  RH WIND       PRES   REMARKS
CLE-HOPKINS    FAIR      78  68  71 SW3       29.99R                  
CLE-LAKEFRONT  FAIR      77  68  73 W3        29.96R                  
CUY CO. ARPT   SUNNY     75  68  78 CALM      29.97R                  
LORAIN-ELYRIA  FAIR      76  64  66 SW3       29.98R                  
ASHTABULA      FAIR      74  71  91 CALM      29.98S                  
AKRON-CANTON   FAIR      73  69  87 SW5       29.99S FOG              
WOOSTER        FAIR      75  70  84 CALM      30.01R                  
MANSFIELD      FAIR      77  73  87 SW3       30.01R                  
YOUNGSTOWN     FAIR      75  67  76 CALM      29.98R                  
$$
 

SKY/WX - Weather  TMP - Temperature  DP - Dew Point  RH - Relative Humidity
WIND - Wind Direction/Speed PRES - Barometric Pressure VSB - Visibility
WCI - Wind Chill Index E13G22 Wind - East Wind 13 mph/Gusts of 22 mph